TimeMDT,TemperatureF,Dew PointF,Humidity,Sea Level PressureIn,VisibilityMPH,Wind Direction,Wind SpeedMPH,Gust SpeedMPH,PrecipitationIn,Events,Conditions,WindDirDegrees,DateUTC
12:44 AM,48.2,46.4,93,30.04,10.0,North,8.1,-,N/A,,Scattered Clouds,350,2013-06-23 06:44:00
12:53 AM,48.0,46.0,93,29.89,10.0,NNW,9.2,-,N/A,,Clear,340,2013-06-23 06:53:00
1:53 AM,46.0,44.1,93,29.98,10.0,Calm,Calm,-,N/A,,Clear,0,2013-06-23 07:53:00
2:53 AM,45.0,42.1,90,29.99,10.0,SSW,4.6,-,N/A,,Clear,210,2013-06-23 08:53:00
3:53 AM,42.1,41.0,96,29.99,10.0,West,3.5,-,N/A,,Clear,270,2013-06-23 09:53:00
4:53 AM,42.1,41.0,96,29.97,10.0,West,5.8,-,N/A,,Clear,270,2013-06-23 10:53:00
5:53 AM,45.0,43.0,93,29.94,10.0,WSW,6.9,-,N/A,,Clear,240,2013-06-23 11:53:00
6:53 AM,48.9,46.0,90,29.91,10.0,SW,8.1,-,N/A,,Clear,230,2013-06-23 12:53:00
7:53 AM,55.0,46.0,72,29.93,10.0,SW,11.5,-,N/A,,Clear,230,2013-06-23 13:53:00
8:53 AM,59.0,46.0,62,29.92,10.0,SW,10.4,-,N/A,,Clear,220,2013-06-23 14:53:00
9:53 AM,66.0,39.9,38,29.87,10.0,SW,10.4,-,N/A,,Clear,220,2013-06-23 15:53:00
10:53 AM,68.0,37.0,32,29.86,10.0,WSW,13.8,19.6,N/A,,Clear,240,2013-06-23 16:53:00
11:53 AM,71.1,37.0,29,29.83,10.0,SW,12.7,19.6,N/A,,Clear,230,2013-06-23 17:53:00
12:53 PM,73.9,33.1,22,29.80,10.0,West,8.1,-,N/A,,Clear,270,2013-06-23 18:53:00
1:53 PM,77.0,27.0,16,29.77,10.0,SW,12.7,19.6,N/A,,Clear,230,2013-06-23 19:53:00
2:53 PM,81.0,21.0,11,29.72,10.0,SW,16.1,25.3,N/A,,Clear,230,2013-06-23 20:53:00
3:53 PM,82.0,19.9,10,29.70,10.0,WSW,10.4,27.6,N/A,,Clear,250,2013-06-23 21:53:00
4:53 PM,84.0,21.0,10,29.68,10.0,WSW,25.3,31.1,N/A,,Clear,240,2013-06-23 22:53:00
5:53 PM,82.9,21.0,10,29.67,10.0,SSW,18.4,25.3,N/A,,Clear,210,2013-06-23 23:53:00
6:53 PM,82.0,21.0,10,29.65,10.0,SSW,10.4,24.2,N/A,,Clear,200,2013-06-24 00:53:00
7:53 PM,75.9,30.9,19,29.64,10.0,South,6.9,-,N/A,,Clear,190,2013-06-24 01:53:00
8:53 PM,69.1,28.9,22,29.65,10.0,Calm,Calm,-,N/A,,Clear,0,2013-06-24 02:53:00
9:53 PM,64.9,41.0,42,29.65,10.0,NE,9.2,-,N/A,,Clear,50,2013-06-24 03:53:00
10:53 PM,61.0,46.9,60,29.64,10.0,ENE,6.9,-,N/A,,Clear,60,2013-06-24 04:53:00
11:53 PM,51.1,46.0,83,29.66,10.0,North,4.6,-,N/A,,Clear,350,2013-06-24 05:53:00